Waarnemingen

Advertentie
Mijn weer
Lanveoc Poulmic, Frankrijk (7109): temperatuur & dauwpunt: 13.04.2018 23:00:00 - 19.04.2018 23:00:00 (CEST)Lanveoc Poulmic, Frankrijk (7109): windsnelheid & windstoten: 13.04.2018 23:00:00 - 19.04.2018 23:00:00 (CEST)Lanveoc Poulmic, Frankrijk (7109): windrichting: 13.04.2018 23:00:00 - 19.04.2018 23:00:00 (CEST)Lanveoc Poulmic, Frankrijk (7109): luchtdruk: 13.04.2018 23:00:00 - 19.04.2018 23:00:00 (CEST)Lanveoc Poulmic, Frankrijk (7109): zicht: 13.04.2018 23:00:00 - 19.04.2018 23:00:00 (CEST)Lanveoc Poulmic, Frankrijk (7109): neerslag: 13.04.2018 23:00:00 - 19.04.2018 23:00:00 (CEST)
Datum & Tijd tt [°C] td [°C] ff [km/u] ff [kn] fx [km/u] fx [kn] dd ppp [hPa] vv [km] rr [mm]
19.04.2018 23:00:00 12,6 9,6 16 9 24 13 ONO 1023,9 10 -
19.04.2018 22:00:00 13,3 10,3 16 9 26 14 NO 1023,8 10 0,0
19.04.2018 21:00:00 14,4 10,4 16 9 24 13 NNO 1023,2 17 0,0
19.04.2018 20:00:00 15,6 11,2 16 9 26 14 NNO 1023,2 18 -
19.04.2018 19:00:00 17,5 11,7 16 9 28 15 N 1023,2 18 0,0
19.04.2018 18:00:00 18,8 12,5 16 9 22 12 N 1022,8 19 0,0
19.04.2018 17:00:00 19,9 12,9 16 9 26 14 N 1022,6 10 -
19.04.2018 16:00:00 20,6 12,6 16 9 28 15 N 1023,1 10 0,0
19.04.2018 15:00:00 20,5 13,0 18 10 28 15 N 1023,0 10 0,0
19.04.2018 14:00:00 20,5 12,7 16 9 22 12 N 1023,0 45 -
19.04.2018 13:00:00 19,6 12,6 11 6 18 10 N 1023,5 19 0,0
19.04.2018 12:00:00 18,2 12,0 9 5 15 8 N 1023,8 19 0,0
19.04.2018 11:00:00 15,8 11,4 8 4 13 7 N 1023,9 19 -
19.04.2018 10:00:00 13,6 11,1 8 4 11 6 ONO 1023,8 19 0,0
19.04.2018 09:00:00 12,1 12,1 5 3 8 4 NO 1023,6 12 0,2
19.04.2018 08:00:00 8,5 8,4 4 2 13 7 NO 1023,3 0,6 -
19.04.2018 07:00:00 8,5 8,2 5 3 11 6 O 1022,8 5 0,0
19.04.2018 06:00:00 8,3 8,0 2 1 8 4 ONO 1022,8 0,2 0,0
19.04.2018 05:00:00 8,7 8,4 0 0 4 2 N 1023,1 0,4 -
19.04.2018 04:00:00 9,4 8,9 5 3 11 6 O 1022,8 5 0,0
19.04.2018 03:00:00 9,8 9,2 5 3 9 5 ZO 1022,7 6 0,0
19.04.2018 02:00:00 10,5 9,6 5 3 13 7 Z 1023,1 7 -
19.04.2018 01:00:00 11,2 9,9 9 5 13 7 ZZW 1023,1 10 0,0
19.04.2018 00:00:00 11,5 9,6 9 5 15 8 Z 1022,8 18 0,0
18.04.2018 23:00:00 12,5 9,3 5 3 18 10 Z 1022,7 40 -
18.04.2018 22:00:00 14,4 9,4 8 4 24 13 ZW 1022,6 10 0,0
18.04.2018 21:00:00 17,6 6,5 15 8 28 15 Z 1021,6 10 0,0
18.04.2018 20:00:00 19,6 7,0 16 9 37 20 ZZO 1020,7 10 -
18.04.2018 19:00:00 20,9 8,2 24 13 41 22 ZZO 1020,7 10 0,0
18.04.2018 18:00:00 21,4 8,3 22 12 37 20 Z 1021,1 26 0,0
18.04.2018 17:00:00 21,8 8,3 21 11 42 23 Z 1021,6 19 -
18.04.2018 16:00:00 22,4 8,9 21 11 44 24 ZZO 1021,7 10 0,0
18.04.2018 15:00:00 22,5 7,8 22 12 41 22 ZZO 1021,9 10 0,0
18.04.2018 14:00:00 22,5 7,8 22 12 39 21 ZZO 1021,8 19 -
18.04.2018 13:00:00 22,1 9,9 24 13 37 20 ZZO 1022,6 45 0,0
18.04.2018 12:00:00 20,6 10,4 22 12 42 23 ZZO 1022,9 10 0,0
18.04.2018 11:00:00 19,9 10,6 24 13 42 23 ZO 1023,2 45 -
18.04.2018 10:00:00 18,0 9,6 11 6 24 13 O 1023,7 10 0,0
18.04.2018 09:00:00 14,5 9,5 9 5 18 10 O 1024,0 10 0,0
18.04.2018 08:00:00 12,4 8,9 15 8 21 11 OZO 1024,4 10 -
18.04.2018 07:00:00 11,8 9,0 11 6 18 10 OZO 1024,5 10 0,0
18.04.2018 06:00:00 11,4 8,8 13 7 22 12 ZZO 1024,7 10 0,0
18.04.2018 05:00:00 11,2 8,4 13 7 22 12 ZZO 1024,7 19 -
18.04.2018 04:00:00 11,4 9,0 15 8 26 14 ZZO 1024,6 10 0,0
18.04.2018 03:00:00 11,3 9,0 16 9 24 13 ZZO 1024,7 10 0,0
18.04.2018 02:00:00 11,5 9,1 16 9 24 13 ZZO 1024,8 19 -
18.04.2018 01:00:00 12,5 9,7 16 9 29 16 Z 1024,7 10 0,0
18.04.2018 00:00:00 12,6 10,0 18 10 31 17 Z 1024,2 35 0,0
17.04.2018 23:00:00 12,9 9,7 15 8 35 19 Z 1024,1 40 -
17.04.2018 22:00:00 13,0 10,2 22 12 41 22 Z 1023,5 13 0,0
17.04.2018 21:00:00 13,9 10,7 22 12 41 22 ZZW 1022,7 10 0,0
17.04.2018 20:00:00 14,4 10,6 28 15 44 24 ZZW 1022,2 10 -
17.04.2018 19:00:00 14,8 10,8 26 14 44 24 ZZW 1021,8 10 0,0
17.04.2018 18:00:00 14,8 10,8 26 14 52 28 ZZW 1021,5 10 0,0
17.04.2018 17:00:00 15,6 11,0 31 17 57 31 ZZW 1021,3 18 -
17.04.2018 16:00:00 15,4 10,4 35 19 59 32 ZZW 1021,0 10 0,0
17.04.2018 15:00:00 14,9 10,5 31 17 61 33 Z 1020,5 10 0,0
17.04.2018 14:00:00 14,7 10,3 35 19 61 33 ZZW 1020,2 19 -
17.04.2018 13:00:00 14,9 10,1 37 20 59 32 Z 1019,6 10 0,0
17.04.2018 12:00:00 14,6 10,2 34 18 59 32 Z 1019,2 19 0,0
17.04.2018 11:00:00 14,1 9,5 34 18 57 31 Z 1018,6 19 -
17.04.2018 10:00:00 13,2 9,8 31 17 59 32 Z 1018,3 16 0,0
17.04.2018 09:00:00 12,4 9,8 29 16 57 31 Z 1017,7 10 0,0
17.04.2018 08:00:00 12,0 9,4 29 16 55 30 Z 1016,9 16 -
17.04.2018 07:00:00 11,8 8,8 31 17 54 29 Z 1016,4 10 0,0
17.04.2018 06:00:00 11,7 8,0 35 19 63 34 Z 1016,3 50 0,0
17.04.2018 05:00:00 11,3 7,2 29 16 63 34 Z 1016,3 35 -
17.04.2018 04:00:00 11,1 6,6 31 17 55 30 Z 1016,1 40 0,0
17.04.2018 03:00:00 11,0 6,3 31 17 52 28 Z 1016,4 10 0,0
17.04.2018 02:00:00 10,8 7,1 31 17 52 28 Z 1016,3 10 -
17.04.2018 01:00:00 10,6 7,3 28 15 50 27 Z 1016,5 35 0,0
17.04.2018 00:00:00 10,6 8,4 28 15 46 25 Z 1016,1 19 0,0
16.04.2018 23:00:00 10,7 8,3 24 13 44 24 Z 1016,3 10 -
16.04.2018 22:00:00 10,8 8,2 26 14 50 27 Z 1015,8 10 0,0
16.04.2018 21:00:00 10,9 8,5 28 15 52 28 Z 1015,5 17 0,0
16.04.2018 20:00:00 11,5 8,7 28 15 54 29 Z 1015,4 10 -
16.04.2018 19:00:00 12,0 8,5 31 17 55 30 Z 1015,5 18 0,0
16.04.2018 18:00:00 12,2 7,9 31 17 54 29 Z 1015,4 10 0,0
16.04.2018 17:00:00 13,6 8,2 34 18 52 28 Z 1015,3 17 -
16.04.2018 16:00:00 13,2 8,1 31 17 54 29 Z 1015,4 10 0,0
16.04.2018 15:00:00 13,8 8,8 28 15 55 30 Z 1015,6 10 0,0
16.04.2018 14:00:00 13,0 7,4 29 16 48 26 ZZW 1015,7 10 -
16.04.2018 13:00:00 13,6 8,2 28 15 44 24 Z 1015,7 18 0,0
16.04.2018 12:00:00 11,9 8,4 26 14 42 23 ZZW 1015,4 10 0,0
16.04.2018 11:00:00 12,0 7,1 21 11 37 20 ZZW 1014,9 10 -
16.04.2018 10:00:00 11,8 7,7 22 12 39 21 ZZW 1014,8 18 0,0
16.04.2018 09:00:00 10,1 8,2 11 6 21 11 ZZW 1014,4 14 0,0
16.04.2018 08:00:00 8,8 7,6 11 6 21 11 ZZW 1013,9 13 -
16.04.2018 07:00:00 8,7 6,8 15 8 24 13 ZZW 1013,7 14 0,0
16.04.2018 06:00:00 8,8 7,1 15 8 24 13 ZZW 1013,4 13 0,0
16.04.2018 05:00:00 8,5 7,4 15 8 21 11 ZZW 1013,2 11 -
16.04.2018 04:00:00 8,3 6,9 15 8 22 12 ZW 1012,9 11 0,0
16.04.2018 03:00:00 8,4 7,0 13 7 21 11 ZW 1012,5 10 0,0
16.04.2018 02:00:00 8,8 7,1 15 8 26 14 ZW 1012,3 12 -
16.04.2018 01:00:00 9,4 7,2 15 8 31 17 ZW 1012,2 15 0,0
16.04.2018 00:00:00 9,2 6,6 16 9 31 17 ZW 1011,8 10 0,0
15.04.2018 23:00:00 9,8 6,5 22 12 39 21 WZW 1011,3 19 -
15.04.2018 22:00:00 10,1 7,2 21 11 35 19 ZW 1011,2 10 0,0
15.04.2018 21:00:00 10,4 7,6 24 13 35 19 ZW 1010,7 10 0,0
15.04.2018 20:00:00 11,4 7,3 28 15 54 29 ZW 1010,0 18 -
15.04.2018 19:00:00 12,4 7,1 29 16 50 27 WZW 1009,4 16 0,0
15.04.2018 18:00:00 12,8 8,5 31 17 59 32 ZW 1009,0 10 0,0
15.04.2018 17:00:00 12,9 9,0 37 20 63 34 WZW 1008,7 12 -
15.04.2018 16:00:00 13,3 8,8 34 18 59 32 ZW 1008,5 16 0,0
15.04.2018 15:00:00 13,2 8,7 37 20 65 35 WZW 1008,1 10 0,0
15.04.2018 14:00:00 12,4 8,5 37 20 63 34 ZW 1007,8 13 -
15.04.2018 13:00:00 13,3 9,7 28 15 55 30 ZW 1007,5 10 0,0
15.04.2018 12:00:00 12,6 9,2 35 19 50 27 ZW 1007,3 10 0,0
15.04.2018 11:00:00 12,0 10,2 26 14 42 23 ZZW 1007,1 16 -
15.04.2018 10:00:00 11,5 10,7 24 13 39 21 Z 1007,0 10 0,0
15.04.2018 09:00:00 11,0 10,4 21 11 37 20 Z 1007,3 17 0,0
15.04.2018 08:00:00 10,6 10,3 22 12 42 23 Z 1007,5 19 -
15.04.2018 07:00:00 10,5 10,3 28 15 44 24 Z 1007,8 9 1,0
15.04.2018 06:00:00 10,1 9,6 28 15 48 26 Z 1008,4 5 0,8
15.04.2018 05:00:00 10,6 9,7 29 16 48 26 Z 1009,2 6 -
15.04.2018 04:00:00 11,0 9,7 24 13 44 24 Z 1010,0 10 0,0
15.04.2018 03:00:00 10,9 9,2 21 11 39 21 Z 1010,9 10 0,0
15.04.2018 02:00:00 10,9 9,2 21 11 34 18 ZZO 1011,4 14 -
15.04.2018 01:00:00 10,5 8,6 21 11 34 18 Z 1012,2 10 0,0
15.04.2018 00:00:00 10,6 8,9 18 10 29 16 Z 1013,3 13 0,0
14.04.2018 23:00:00 10,4 8,3 16 9 29 16 ZZO 1013,4 18 -
14.04.2018 22:00:00 10,3 8,6 16 9 26 14 Z 1014,0 13 0,0
14.04.2018 21:00:00 10,9 8,5 13 7 24 13 Z 1013,8 19 0,0
14.04.2018 20:00:00 11,9 8,6 16 9 26 14 Z 1013,7 25 -
14.04.2018 19:00:00 12,7 8,8 18 10 34 18 ZZW 1013,8 20 0,0
14.04.2018 18:00:00 13,5 8,1 21 11 31 17 ZZW 1014,3 30 0,0
14.04.2018 17:00:00 14,6 8,8 15 8 26 14 WZW 1014,3 13 -
14.04.2018 16:00:00 15,1 9,0 15 8 24 13 ZW 1014,4 10 0,0
14.04.2018 15:00:00 14,9 9,3 16 9 24 13 ZZW 1014,7 9 0,0
14.04.2018 14:00:00 15,2 10,2 13 7 29 16 WZW 1015,1 10 -
14.04.2018 13:00:00 15,2 10,6 15 8 22 12 WZW 1015,6 9 0,0
14.04.2018 12:00:00 15,1 10,5 11 6 18 10 Z 1015,3 18 0,0
14.04.2018 11:00:00 14,1 11,1 5 3 8 4 O 1015,2 12 -
14.04.2018 10:00:00 11,1 10,6 2 1 8 4 - 1015,1 10 0,0
14.04.2018 09:00:00 9,0 8,9 5 3 15 8 O 1015,0 3,5 0,0
14.04.2018 08:00:00 8,5 8,4 5 3 8 4 O 1014,7 2,4 -
14.04.2018 07:00:00 8,6 8,5 5 3 9 5 O 1014,4 0,1 0,0
14.04.2018 06:00:00 8,3 8,2 0 0 5 3 N 1014,1 1,5 0,0
14.04.2018 05:00:00 8,1 7,8 4 2 8 4 N 1014,3 0,9 -
14.04.2018 04:00:00 8,5 8,2 5 3 8 4 NNW 1014,6 2,7 0,0
14.04.2018 03:00:00 8,5 8,2 4 2 5 3 ZW 1014,5 5 0,0
14.04.2018 02:00:00 9,1 8,8 5 3 5 3 W 1014,2 4,6 -
14.04.2018 01:00:00 8,5 8,1 2 1 5 3 WZW 1013,8 4,2 0,0
14.04.2018 00:00:00 9,2 8,7 0 0 4 2 N 1013,6 4,9 0,0
13.04.2018 23:00:00 9,6 9,0 4 2 5 3 ZO 1013,1 5 -

tt = temperatuur
td = dauwpunt
ff = windsnelheid
fx = windstoten
dd = windrichting
ppp = luchtdruk
vv = zicht
rr = neerslag

Weerstations in de omgeving